Time,TemperatureF,DewpointF,PressureIn,WindDirection,WindDirectionDegrees,WindSpeedMPH,WindSpeedGustMPH,Humidity,HourlyPrecipIn,Conditions,Clouds,dailyrainin,SoftwareType,DateUTC
2013-01-30 00:03:00,54.3,52.9,30.13,SSW,207,0.0,0.0,95,0.00,,,0.01,meteohub,2013-01-30 05:03:00,
2013-01-30 00:04:00,54.1,53.1,30.14,SSW,207,0.0,0.0,96,0.00,,,0.01,meteohub,2013-01-30 05:04:00,
2013-01-30 00:09:00,54.1,53.1,30.13,SSW,207,0.0,0.0,96,0.00,,,0.01,meteohub,2013-01-30 05:09:00,
2013-01-30 00:14:00,54.1,53.1,30.13,SSW,207,0.0,0.0,96,0.00,,,0.00,meteohub,2013-01-30 05:14:00,
2013-01-30 00:19:00,54.1,53.1,30.13,SSW,207,0.0,0.0,96,0.00,,,0.00,meteohub,2013-01-30 05:19:00,
2013-01-30 00:24:00,54.0,52.9,30.13,SSW,207,0.0,0.0,96,0.00,,,0.00,meteohub,2013-01-30 05:24:00,
2013-01-30 00:29:00,54.1,53.1,30.13,SSW,207,0.0,0.0,96,0.00,,,0.00,meteohub,2013-01-30 05:29:00,
2013-01-30 00:34:00,54.1,53.1,30.12,SSW,207,0.0,0.0,96,0.00,,,0.00,meteohub,2013-01-30 05:34:00,
2013-01-30 00:39:00,54.3,53.4,30.12,SSW,207,0.0,0.0,97,0.00,,,0.00,meteohub,2013-01-30 05:39:00,
2013-01-30 00:44:00,54.7,53.8,30.11,SSW,207,0.0,0.0,97,0.00,,,0.00,meteohub,2013-01-30 05:44:00,
2013-01-30 00:49:00,54.9,54.0,30.11,SSW,207,0.0,0.0,97,0.00,,,0.00,meteohub,2013-01-30 05:49:00,
2013-01-30 00:54:00,54.9,54.0,30.11,SSW,207,0.0,0.0,97,0.00,,,0.00,meteohub,2013-01-30 05:54:00,
2013-01-30 00:59:00,54.9,54.0,30.10,SSW,207,0.0,0.0,97,0.00,,,0.00,meteohub,2013-01-30 05:59:00,
2013-01-30 01:04:00,55.2,54.3,30.10,SSW,207,0.0,0.0,97,0.00,,,0.00,meteohub,2013-01-30 06:04:00,
2013-01-30 01:09:00,55.6,54.7,30.10,SSW,207,0.0,0.0,97,0.00,,,0.00,meteohub,2013-01-30 06:09:00,
2013-01-30 01:14:00,55.9,55.4,30.10,SSW,207,0.0,0.0,98,0.00,,,0.00,meteohub,2013-01-30 06:14:00,
2013-01-30 01:19:00,56.7,56.1,30.10,SSW,207,0.0,0.0,98,0.00,,,0.00,meteohub,2013-01-30 06:19:00,
2013-01-30 01:24:00,57.4,56.8,30.10,SSW,207,0.0,0.0,98,0.00,,,0.00,meteohub,2013-01-30 06:24:00,
2013-01-30 01:29:00,58.1,57.6,30.10,SSW,207,0.0,0.0,98,0.00,,,0.00,meteohub,2013-01-30 06:29:00,
2013-01-30 01:34:00,58.5,57.9,30.09,SSW,207,0.0,0.0,98,0.00,,,0.00,meteohub,2013-01-30 06:34:00,
2013-01-30 01:39:00,58.6,58.1,30.09,SSW,207,0.0,0.0,98,0.00,,,0.00,meteohub,2013-01-30 06:39:00,
2013-01-30 01:44:00,59.2,58.6,30.09,SSW,207,0.0,0.0,98,0.00,,,0.00,meteohub,2013-01-30 06:44:00,
2013-01-30 01:49:00,59.7,59.2,30.09,SSW,207,0.0,0.0,98,0.00,,,0.00,meteohub,2013-01-30 06:49:00,
2013-01-30 01:54:00,60.1,59.5,30.09,SSW,207,0.0,0.0,98,0.00,,,0.00,meteohub,2013-01-30 06:54:00,
2013-01-30 01:59:00,59.9,59.4,30.09,SSW,207,0.0,0.0,98,0.00,,,0.00,meteohub,2013-01-30 06:59:00,
2013-01-30 02:04:00,59.7,59.2,30.09,SSW,207,0.0,0.0,98,0.00,,,0.00,meteohub,2013-01-30 07:04:00,
2013-01-30 02:09:00,60.1,59.5,30.09,SSW,207,0.0,0.0,98,0.00,,,0.00,meteohub,2013-01-30 07:09:00,
2013-01-30 02:14:00,60.6,60.1,30.09,WSW,240,0.0,0.0,98,0.00,,,0.00,meteohub,2013-01-30 07:14:00,
2013-01-30 02:19:00,61.5,61.0,30.09,West,275,3.0,3.0,98,0.00,,,0.00,meteohub,2013-01-30 07:19:00,
2013-01-30 02:24:00,62.1,61.5,30.09,WSW,252,1.0,2.0,98,0.00,,,0.00,meteohub,2013-01-30 07:24:00,
2013-01-30 02:29:00,62.2,61.7,30.09,SW,220,0.0,4.0,98,0.00,,,0.00,meteohub,2013-01-30 07:29:00,
2013-01-30 02:34:00,62.4,61.9,30.08,WSW,238,0.0,4.0,98,0.00,,,0.00,meteohub,2013-01-30 07:34:00,
2013-01-30 02:39:00,62.8,62.2,30.08,SSW,207,0.0,4.0,98,0.00,,,0.00,meteohub,2013-01-30 07:39:00,
2013-01-30 02:44:00,63.1,62.2,30.07,WSW,255,1.0,7.0,97,0.00,,,0.00,meteohub,2013-01-30 07:44:00,
2013-01-30 02:49:00,63.5,62.6,30.07,South,188,0.0,7.0,97,0.00,,,0.00,meteohub,2013-01-30 07:49:00,
2013-01-30 02:54:00,63.9,62.8,30.07,SW,234,0.0,8.0,96,0.00,,,0.00,meteohub,2013-01-30 07:54:00,
2013-01-30 02:59:00,64.0,62.6,30.07,SSW,198,5.0,9.0,95,0.00,,,0.00,meteohub,2013-01-30 07:59:00,
2013-01-30 03:04:00,64.4,62.4,30.07,SSW,202,0.0,9.0,93,0.00,,,0.00,meteohub,2013-01-30 08:04:00,
2013-01-30 03:09:00,64.6,62.4,30.07,South,188,3.0,9.0,93,0.00,,,0.00,meteohub,2013-01-30 08:09:00,
2013-01-30 03:14:00,64.6,62.2,30.07,SW,214,0.0,9.0,92,0.00,,,0.00,meteohub,2013-01-30 08:14:00,
2013-01-30 03:19:00,64.6,62.2,30.06,SSW,202,0.0,9.0,92,0.00,,,0.00,meteohub,2013-01-30 08:19:00,
2013-01-30 03:24:00,64.8,62.4,30.06,SW,229,5.0,9.0,92,0.00,,,0.00,meteohub,2013-01-30 08:24:00,
2013-01-30 03:29:00,64.8,62.1,30.06,SW,228,0.0,8.0,91,0.00,,,0.00,meteohub,2013-01-30 08:29:00,
2013-01-30 03:34:00,64.9,62.2,30.06,SW,234,2.0,8.0,91,0.00,,,0.00,meteohub,2013-01-30 08:34:00,
2013-01-30 03:39:00,64.8,61.7,30.06,South,190,4.0,7.0,90,0.00,,,0.00,meteohub,2013-01-30 08:39:00,
2013-01-30 03:44:00,64.9,61.9,30.06,SSE,165,0.0,7.0,90,0.00,,,0.00,meteohub,2013-01-30 08:44:00,
2013-01-30 03:49:00,64.9,61.9,30.06,South,187,0.0,7.0,90,0.00,,,0.00,meteohub,2013-01-30 08:49:00,
2013-01-30 03:54:00,64.8,61.7,30.06,WSW,257,0.0,8.0,90,0.00,,,0.00,meteohub,2013-01-30 08:54:00,
2013-01-30 03:59:00,64.8,61.7,30.06,SSW,213,0.0,8.0,90,0.00,,,0.00,meteohub,2013-01-30 08:59:00,
2013-01-30 04:04:00,64.8,61.7,30.06,SW,221,0.0,8.0,90,0.00,,,0.00,meteohub,2013-01-30 09:04:00,
2013-01-30 04:10:00,64.8,61.7,30.06,SSW,203,0.0,8.0,90,0.00,,,0.00,meteohub,2013-01-30 09:10:00,
2013-01-30 04:15:00,64.6,61.5,30.05,SW,228,0.0,8.0,90,0.00,,,0.00,meteohub,2013-01-30 09:15:00,
2013-01-30 04:19:00,64.4,61.3,30.05,South,172,0.0,8.0,90,0.00,,,0.00,meteohub,2013-01-30 09:19:00,
2013-01-30 04:24:00,64.2,61.5,30.05,WSW,237,0.0,4.0,91,0.00,,,0.00,meteohub,2013-01-30 09:24:00,
2013-01-30 04:30:00,64.2,61.5,30.05,SW,225,0.0,4.0,91,0.00,,,0.00,meteohub,2013-01-30 09:30:00,
2013-01-30 04:34:00,64.0,61.3,30.05,South,188,0.0,4.0,91,0.00,,,0.00,meteohub,2013-01-30 09:34:00,
2013-01-30 04:40:00,63.9,61.2,30.05,SSW,203,0.0,4.0,91,0.00,,,0.00,meteohub,2013-01-30 09:40:00,
2013-01-30 04:45:00,63.9,61.5,30.04,SSE,158,0.0,4.0,92,0.00,,,0.00,meteohub,2013-01-30 09:45:00,
2013-01-30 04:50:00,63.9,61.5,30.04,SE,145,0.0,4.0,92,0.00,,,0.00,meteohub,2013-01-30 09:50:00,
2013-01-30 04:55:00,63.7,61.3,30.04,WSW,257,1.0,6.0,92,0.00,,,0.00,meteohub,2013-01-30 09:55:00,
2013-01-30 05:00:00,63.7,61.3,30.04,South,185,2.0,6.0,92,0.00,,,0.00,meteohub,2013-01-30 10:00:00,
2013-01-30 05:05:00,63.9,61.5,30.04,South,189,5.0,6.0,92,0.00,,,0.00,meteohub,2013-01-30 10:05:00,
2013-01-30 05:10:00,63.9,61.5,30.04,SSW,194,0.0,6.0,92,0.00,,,0.00,meteohub,2013-01-30 10:10:00,
2013-01-30 05:15:00,63.9,61.5,30.04,SSW,194,0.0,6.0,92,0.00,,,0.00,meteohub,2013-01-30 10:15:00,
2013-01-30 05:20:00,63.9,61.5,30.03,SW,215,0.0,6.0,92,0.00,,,0.00,meteohub,2013-01-30 10:20:00,
2013-01-30 05:25:00,64.0,61.7,30.03,SSE,159,5.0,6.0,92,0.00,,,0.00,meteohub,2013-01-30 10:25:00,
2013-01-30 05:30:00,64.2,61.5,30.03,SW,217,0.0,6.0,91,0.00,,,0.00,meteohub,2013-01-30 10:30:00,
2013-01-30 05:35:00,64.4,61.7,30.04,SSW,202,0.0,6.0,91,0.00,,,0.00,meteohub,2013-01-30 10:35:00,
2013-01-30 05:40:00,64.9,62.2,30.03,SSW,200,3.0,6.0,91,0.00,,,0.00,meteohub,2013-01-30 10:40:00,
2013-01-30 05:45:00,64.9,61.9,30.03,SW,216,0.0,11.0,90,0.00,,,0.00,meteohub,2013-01-30 10:45:00,
2013-01-30 05:50:00,65.1,62.1,30.03,SW,216,0.0,11.0,90,0.00,,,0.00,meteohub,2013-01-30 10:50:00,
2013-01-30 05:55:00,65.1,62.1,30.03,SW,216,3.0,11.0,90,0.00,,,0.00,meteohub,2013-01-30 10:55:00,
2013-01-30 06:00:00,65.3,62.2,30.02,West,259,3.0,11.0,90,0.00,,,0.00,meteohub,2013-01-30 11:00:00,
2013-01-30 06:05:00,65.3,62.1,30.02,SW,230,2.0,11.0,89,0.00,,,0.00,meteohub,2013-01-30 11:05:00,
2013-01-30 06:10:00,65.3,62.1,30.03,SSW,199,5.0,10.0,89,0.00,,,0.00,meteohub,2013-01-30 11:10:00,
2013-01-30 06:15:00,65.5,62.2,30.03,SSW,209,4.0,10.0,89,0.00,,,0.00,meteohub,2013-01-30 11:15:00,
2013-01-30 06:20:00,65.5,62.2,30.03,SSW,198,4.0,10.0,89,0.00,,,0.00,meteohub,2013-01-30 11:20:00,
2013-01-30 06:25:00,65.5,62.2,30.03,WSW,253,0.0,10.0,89,0.00,,,0.00,meteohub,2013-01-30 11:25:00,
2013-01-30 06:30:00,65.1,61.9,30.03,South,174,0.0,10.0,89,0.00,,,0.00,meteohub,2013-01-30 11:30:00,
2013-01-30 06:35:00,65.1,61.9,30.03,SSE,159,1.0,10.0,89,0.00,,,0.00,meteohub,2013-01-30 11:35:00,
2013-01-30 06:40:00,65.1,61.9,30.03,WSW,253,2.0,9.0,89,0.00,,,0.00,meteohub,2013-01-30 11:40:00,
2013-01-30 06:45:00,65.1,62.1,30.04,WSW,247,3.0,9.0,90,0.00,,,0.00,meteohub,2013-01-30 11:45:00,
2013-01-30 06:50:00,65.1,62.1,30.03,SSW,211,0.0,9.0,90,0.00,,,0.00,meteohub,2013-01-30 11:50:00,
2013-01-30 06:55:00,65.5,62.4,30.04,SW,221,2.0,9.0,90,0.00,,,0.00,meteohub,2013-01-30 11:55:00,
2013-01-30 07:00:00,65.5,62.4,30.04,SSW,212,0.0,9.0,90,0.00,,,0.00,meteohub,2013-01-30 12:00:00,
2013-01-30 07:05:00,65.8,62.4,30.03,SW,232,2.0,9.0,89,0.00,,,0.00,meteohub,2013-01-30 12:05:00,
2013-01-30 07:10:00,66.0,62.6,30.04,SW,215,0.0,9.0,89,0.00,,,0.00,meteohub,2013-01-30 12:10:00,
2013-01-30 07:15:00,66.2,62.8,30.03,SW,215,8.0,9.0,89,0.00,,,0.00,meteohub,2013-01-30 12:15:00,
2013-01-30 07:20:00,66.2,62.8,30.03,SW,222,0.0,8.0,89,0.00,,,0.00,meteohub,2013-01-30 12:20:00,
2013-01-30 07:25:00,66.0,62.6,30.04,WSW,248,1.0,8.0,89,0.00,,,0.00,meteohub,2013-01-30 12:25:00,
2013-01-30 07:30:00,66.0,62.6,30.03,SW,220,4.0,8.0,89,0.00,,,0.00,meteohub,2013-01-30 12:30:00,
2013-01-30 07:35:00,66.0,62.6,30.03,SW,236,2.0,8.0,89,0.00,,,0.00,meteohub,2013-01-30 12:35:00,
2013-01-30 07:40:00,66.0,62.6,30.03,SW,214,5.0,8.0,89,0.00,,,0.00,meteohub,2013-01-30 12:40:00,
2013-01-30 07:45:00,66.2,62.8,30.03,SSW,208,0.0,11.0,89,0.00,,,0.00,meteohub,2013-01-30 12:45:00,
2013-01-30 07:50:00,66.4,62.8,30.02,SSW,213,1.0,11.0,88,0.00,,,0.00,meteohub,2013-01-30 12:50:00,
2013-01-30 07:55:00,66.6,63.0,30.02,WSW,243,5.0,11.0,88,0.00,,,0.00,meteohub,2013-01-30 12:55:00,
2013-01-30 08:00:00,66.7,63.1,30.01,SW,222,3.0,11.0,88,0.00,,,0.00,meteohub,2013-01-30 13:00:00,
2013-01-30 08:05:00,67.1,63.5,30.01,SW,216,5.0,11.0,88,0.00,,,0.00,meteohub,2013-01-30 13:05:00,
2013-01-30 08:10:00,67.5,63.5,30.01,SW,223,7.0,15.0,87,0.00,,,0.00,meteohub,2013-01-30 13:10:00,
2013-01-30 08:15:00,67.6,63.7,30.01,SW,219,1.0,15.0,87,0.00,,,0.00,meteohub,2013-01-30 13:15:00,
2013-01-30 08:20:00,68.0,63.7,30.00,SW,216,9.0,15.0,86,0.00,,,0.00,meteohub,2013-01-30 13:20:00,
2013-01-30 08:25:00,68.4,63.7,30.00,West,265,7.0,15.0,85,0.00,,,0.00,meteohub,2013-01-30 13:25:00,
2013-01-30 08:30:00,68.5,63.9,30.00,SSW,200,4.0,15.0,85,0.00,,,0.00,meteohub,2013-01-30 13:30:00,
2013-01-30 08:35:00,68.5,63.9,30.01,SW,214,5.0,15.0,85,0.00,,,0.00,meteohub,2013-01-30 13:35:00,
2013-01-30 08:40:00,68.7,63.7,30.01,SSW,200,9.0,15.0,84,0.00,,,0.00,meteohub,2013-01-30 13:40:00,
2013-01-30 08:45:00,68.7,63.7,30.01,SSE,147,5.0,15.0,84,0.00,,,0.00,meteohub,2013-01-30 13:45:00,
2013-01-30 08:50:00,68.7,63.7,30.01,SSW,206,4.0,15.0,84,0.00,,,0.00,meteohub,2013-01-30 13:50:00,
2013-01-30 08:55:00,69.1,64.0,30.01,SSW,205,2.0,15.0,84,0.00,,,0.00,meteohub,2013-01-30 13:55:00,
2013-01-30 09:00:00,69.1,64.0,30.01,SSW,213,7.0,18.0,84,0.00,,,0.00,meteohub,2013-01-30 14:00:00,
2013-01-30 09:05:00,69.1,64.0,30.01,SW,230,9.0,18.0,84,0.00,,,0.00,meteohub,2013-01-30 14:05:00,
2013-01-30 09:10:00,69.4,64.0,30.01,SW,227,10.0,18.0,83,0.00,,,0.00,meteohub,2013-01-30 14:10:00,
2013-01-30 09:15:00,70.0,64.6,30.01,South,184,6.0,18.0,83,0.00,,,0.00,meteohub,2013-01-30 14:15:00,
2013-01-30 09:20:00,70.3,64.6,30.01,SSW,213,2.0,15.0,82,0.00,,,0.00,meteohub,2013-01-30 14:20:00,
2013-01-30 09:25:00,70.5,64.8,30.01,SSW,207,1.0,15.0,82,0.00,,,0.00,meteohub,2013-01-30 14:25:00,
2013-01-30 09:30:00,70.9,64.8,30.01,WSW,254,5.0,15.0,81,0.00,,,0.00,meteohub,2013-01-30 14:30:00,
2013-01-30 09:35:00,70.9,64.8,30.01,West,261,2.0,15.0,81,0.00,,,0.00,meteohub,2013-01-30 14:35:00,
2013-01-30 09:40:00,70.9,64.8,30.01,WSW,253,4.0,13.0,81,0.00,,,0.00,meteohub,2013-01-30 14:40:00,
2013-01-30 09:45:00,70.7,64.6,30.01,SW,224,1.0,13.0,81,0.00,,,0.00,meteohub,2013-01-30 14:45:00,
2013-01-30 09:50:00,70.7,64.6,30.01,WSW,240,6.0,22.0,81,0.00,,,0.00,meteohub,2013-01-30 14:50:00,
2013-01-30 09:55:00,71.1,64.6,30.01,WSW,256,5.0,22.0,80,0.00,,,0.00,meteohub,2013-01-30 14:55:00,
2013-01-30 10:00:00,71.1,64.6,30.00,SW,223,4.0,22.0,80,0.00,,,0.00,meteohub,2013-01-30 15:00:00,
2013-01-30 10:05:00,71.4,64.6,30.00,WNW,284,5.0,22.0,79,0.00,,,0.00,meteohub,2013-01-30 15:05:00,
2013-01-30 10:10:00,71.6,64.8,30.00,West,265,9.0,22.0,79,0.00,,,0.00,meteohub,2013-01-30 15:10:00,
2013-01-30 10:15:00,72.0,65.1,30.00,SW,218,10.0,22.0,79,0.00,,,0.00,meteohub,2013-01-30 15:15:00,
2013-01-30 10:20:00,72.1,64.6,29.99,SW,216,8.0,16.0,77,0.00,,,0.00,meteohub,2013-01-30 15:20:00,
2013-01-30 10:25:00,72.3,64.8,29.99,SW,216,11.0,16.0,77,0.00,,,0.00,meteohub,2013-01-30 15:25:00,
2013-01-30 10:30:00,72.5,64.6,30.00,SW,219,12.0,21.0,76,0.00,,,0.00,meteohub,2013-01-30 15:30:00,
2013-01-30 10:35:00,72.3,64.8,29.99,SW,225,7.0,21.0,77,0.00,,,0.00,meteohub,2013-01-30 15:35:00,
2013-01-30 10:40:00,72.7,64.8,29.99,SSW,205,9.0,21.0,76,0.00,,,0.00,meteohub,2013-01-30 15:40:00,
2013-01-30 10:45:00,72.7,64.8,29.99,WNW,288,6.0,21.0,76,0.00,,,0.00,meteohub,2013-01-30 15:45:00,
2013-01-30 10:50:00,72.7,64.8,29.99,SSW,200,7.0,27.0,76,0.00,,,0.00,meteohub,2013-01-30 15:50:00,
2013-01-30 10:55:00,72.9,64.8,29.98,SSW,193,5.0,27.0,76,0.00,,,0.00,meteohub,2013-01-30 15:55:00,
2013-01-30 11:00:00,73.2,64.8,29.98,SE,128,11.0,23.0,75,0.00,,,0.00,meteohub,2013-01-30 16:00:00,
2013-01-30 11:05:00,73.6,65.1,29.97,SSW,209,5.0,23.0,75,0.00,,,0.00,meteohub,2013-01-30 16:05:00,
2013-01-30 11:10:00,73.4,64.6,29.96,SW,235,13.0,23.0,74,0.00,,,0.00,meteohub,2013-01-30 16:10:00,
2013-01-30 11:15:00,73.6,64.8,29.97,WSW,246,5.0,23.0,74,0.00,,,0.00,meteohub,2013-01-30 16:15:00,
2013-01-30 11:20:00,73.2,64.4,29.97,WSW,241,4.0,25.0,74,0.00,,,0.00,meteohub,2013-01-30 16:20:00,
2013-01-30 11:25:00,73.2,64.4,29.97,WSW,253,14.0,25.0,74,0.00,,,0.00,meteohub,2013-01-30 16:25:00,
2013-01-30 11:30:00,73.2,64.4,29.97,WSW,258,5.0,23.0,74,0.00,,,0.00,meteohub,2013-01-30 16:30:00,
2013-01-30 11:35:00,73.4,64.6,29.97,SW,235,10.0,23.0,74,0.00,,,0.00,meteohub,2013-01-30 16:35:00,
2013-01-30 11:40:00,73.8,64.6,29.96,South,180,8.0,23.0,73,0.00,,,0.00,meteohub,2013-01-30 16:40:00,
2013-01-30 11:45:00,73.9,64.4,29.95,WSW,252,4.0,23.0,72,0.00,,,0.00,meteohub,2013-01-30 16:45:00,
2013-01-30 11:50:00,74.1,64.6,29.94,SSW,192,6.0,24.0,72,0.00,,,0.00,meteohub,2013-01-30 16:50:00,
2013-01-30 11:55:00,74.5,64.9,29.94,SSW,205,4.0,24.0,72,0.00,,,0.00,meteohub,2013-01-30 16:55:00,
2013-01-30 12:00:00,74.5,64.9,29.94,SW,215,8.0,24.0,72,0.00,,,0.00,meteohub,2013-01-30 17:00:00,
2013-01-30 12:05:00,74.5,64.9,29.94,SW,234,13.0,24.0,72,0.00,,,0.00,meteohub,2013-01-30 17:05:00,
2013-01-30 12:10:00,74.5,64.4,29.93,West,269,9.0,24.0,71,0.00,,,0.00,meteohub,2013-01-30 17:10:00,
2013-01-30 12:15:00,73.9,64.4,29.94,WSW,246,3.0,24.0,72,0.00,,,0.00,meteohub,2013-01-30 17:15:00,
2013-01-30 12:20:00,74.3,65.1,29.93,SSW,195,14.0,27.0,73,0.00,,,0.00,meteohub,2013-01-30 17:20:00,
2013-01-30 12:25:00,74.7,65.1,29.93,West,273,12.0,27.0,72,0.00,,,0.00,meteohub,2013-01-30 17:25:00,
2013-01-30 12:30:00,75.0,65.3,29.94,SW,225,6.0,27.0,72,0.00,,,0.00,meteohub,2013-01-30 17:30:00,
2013-01-30 12:35:00,74.7,64.6,29.94,WSW,251,14.0,27.0,71,0.00,,,0.00,meteohub,2013-01-30 17:35:00,
2013-01-30 12:40:00,74.5,64.9,29.93,NNW,327,14.0,27.0,72,0.00,,,0.00,meteohub,2013-01-30 17:40:00,
2013-01-30 12:45:00,74.1,64.9,29.92,WSW,252,8.0,26.0,73,0.00,,,0.00,meteohub,2013-01-30 17:45:00,
2013-01-30 12:50:00,74.1,64.9,29.91,SW,223,17.0,26.0,73,0.00,,,0.00,meteohub,2013-01-30 17:50:00,
2013-01-30 12:55:00,74.3,64.8,29.91,SW,227,13.0,26.0,72,0.00,,,0.00,meteohub,2013-01-30 17:55:00,
2013-01-30 13:00:00,74.1,64.6,29.91,SW,227,14.0,23.0,72,0.00,,,0.00,meteohub,2013-01-30 18:00:00,
2013-01-30 13:05:00,74.1,64.6,29.91,West,269,8.0,23.0,72,0.00,,,0.00,meteohub,2013-01-30 18:05:00,
2013-01-30 13:10:00,74.1,64.6,29.91,South,169,10.0,23.0,72,0.00,,,0.00,meteohub,2013-01-30 18:10:00,
2013-01-30 13:15:00,73.9,64.4,29.90,WNW,284,9.0,23.0,72,0.00,,,0.00,meteohub,2013-01-30 18:15:00,
2013-01-30 13:20:00,74.5,64.9,29.90,South,191,13.0,22.0,72,0.00,,,0.00,meteohub,2013-01-30 18:20:00,
2013-01-30 13:25:00,74.5,64.4,29.91,WSW,252,15.0,22.0,71,0.00,,,0.00,meteohub,2013-01-30 18:25:00,
2013-01-30 13:30:00,73.6,64.4,29.90,WNW,293,9.0,22.0,73,0.00,,,0.00,meteohub,2013-01-30 18:30:00,
2013-01-30 13:36:00,73.0,63.9,29.90,SW,217,10.0,22.0,73,0.00,,,0.00,meteohub,2013-01-30 18:36:00,
2013-01-30 13:41:00,72.9,64.0,29.90,SW,228,13.0,24.0,74,0.00,,,0.00,meteohub,2013-01-30 18:41:00,
2013-01-30 13:46:00,72.9,64.0,29.89,SSW,196,12.0,24.0,74,0.00,,,0.00,meteohub,2013-01-30 18:46:00,
2013-01-30 13:51:00,72.7,64.2,29.89,West,271,12.0,21.0,75,0.00,,,0.00,meteohub,2013-01-30 18:51:00,
2013-01-30 13:56:00,72.5,64.0,29.88,West,281,10.0,21.0,75,0.00,,,0.00,meteohub,2013-01-30 18:56:00,
2013-01-30 14:01:00,72.3,63.5,29.88,West,266,8.0,20.0,74,0.00,,,0.00,meteohub,2013-01-30 19:01:00,
2013-01-30 14:06:00,72.1,63.9,29.88,South,191,10.0,20.0,75,0.00,,,0.00,meteohub,2013-01-30 19:06:00,
2013-01-30 14:11:00,72.1,63.9,29.88,SSW,199,9.0,20.0,75,0.00,,,0.00,meteohub,2013-01-30 19:11:00,
2013-01-30 14:16:00,72.1,63.9,29.88,West,262,14.0,20.0,75,0.00,,,0.00,meteohub,2013-01-30 19:16:00,
2013-01-30 14:21:00,72.1,64.2,29.87,SSW,201,10.0,19.0,76,0.00,,,0.00,meteohub,2013-01-30 19:21:00,
2013-01-30 14:26:00,72.1,63.9,29.87,SW,217,7.0,19.0,75,0.00,,,0.00,meteohub,2013-01-30 19:26:00,
2013-01-30 14:31:00,72.1,63.9,29.87,South,171,9.0,23.0,75,0.00,,,0.00,meteohub,2013-01-30 19:31:00,
2013-01-30 14:36:00,72.1,63.9,29.87,South,182,5.0,23.0,75,0.00,,,0.00,meteohub,2013-01-30 19:36:00,
2013-01-30 14:41:00,72.3,63.9,29.86,WSW,244,3.0,18.0,75,0.00,,,0.00,meteohub,2013-01-30 19:41:00,
2013-01-30 14:46:00,72.3,63.9,29.86,SW,228,8.0,18.0,75,0.00,,,0.00,meteohub,2013-01-30 19:46:00,
2013-01-30 14:51:00,72.5,64.0,29.86,WNW,285,7.0,18.0,75,0.00,,,0.00,meteohub,2013-01-30 19:51:00,
2013-01-30 14:56:00,72.5,64.0,29.86,SW,227,4.0,18.0,75,0.00,,,0.00,meteohub,2013-01-30 19:56:00,
2013-01-30 15:01:00,72.3,63.9,29.86,SSW,207,6.0,22.0,75,0.00,,,0.00,meteohub,2013-01-30 20:01:00,
2013-01-30 15:06:00,72.1,64.2,29.85,South,188,6.0,22.0,76,0.00,,,0.00,meteohub,2013-01-30 20:06:00,
2013-01-30 15:11:00,72.1,64.2,29.85,SW,235,10.0,18.0,76,0.00,,,0.00,meteohub,2013-01-30 20:11:00,
2013-01-30 15:16:00,72.0,64.0,29.85,SW,232,5.0,18.0,76,0.00,,,0.00,meteohub,2013-01-30 20:16:00,
2013-01-30 15:21:00,71.8,63.9,29.85,West,269,4.0,18.0,76,0.00,,,0.00,meteohub,2013-01-30 20:21:00,
2013-01-30 15:26:00,71.4,63.9,29.84,SE,128,18.0,18.0,77,0.00,,,0.00,meteohub,2013-01-30 20:26:00,
2013-01-30 15:31:00,71.4,63.9,29.84,SSW,207,8.0,21.0,77,0.00,,,0.00,meteohub,2013-01-30 20:31:00,
2013-01-30 15:36:00,71.2,64.0,29.84,South,169,2.0,21.0,78,0.00,,,0.00,meteohub,2013-01-30 20:36:00,
2013-01-30 15:41:00,71.2,64.0,29.83,SW,227,15.0,18.0,78,0.00,,,0.00,meteohub,2013-01-30 20:41:00,
2013-01-30 15:46:00,71.1,64.2,29.83,SSW,209,9.0,18.0,79,0.00,,,0.00,meteohub,2013-01-30 20:46:00,
2013-01-30 15:51:00,70.5,63.7,29.83,SW,227,7.0,18.0,79,0.00,,,0.00,meteohub,2013-01-30 20:51:00,
2013-01-30 15:56:00,70.2,63.7,29.83,SW,215,4.0,18.0,80,0.00,,,0.00,meteohub,2013-01-30 20:56:00,
2013-01-30 16:01:00,70.2,63.7,29.82,WSW,241,6.0,21.0,80,0.00,,,0.00,meteohub,2013-01-30 21:01:00,
2013-01-30 16:06:00,69.8,63.7,29.83,SSW,205,9.0,21.0,81,0.00,,,0.00,meteohub,2013-01-30 21:06:00,
2013-01-30 16:11:00,69.6,63.5,29.82,WSW,257,5.0,21.0,81,0.00,,,0.00,meteohub,2013-01-30 21:11:00,
2013-01-30 16:16:00,69.6,63.5,29.82,SSW,209,4.0,21.0,81,0.00,,,0.00,meteohub,2013-01-30 21:16:00,
2013-01-30 16:21:00,69.8,63.7,29.82,SW,227,5.0,21.0,81,0.00,,,0.00,meteohub,2013-01-30 21:21:00,
2013-01-30 16:26:00,70.0,63.9,29.81,SW,227,9.0,21.0,81,0.00,,,0.00,meteohub,2013-01-30 21:26:00,
2013-01-30 16:31:00,69.4,63.7,29.81,SSE,152,8.0,18.0,82,0.00,,,0.00,meteohub,2013-01-30 21:31:00,
2013-01-30 16:36:00,69.4,63.7,29.81,SSW,196,10.0,18.0,82,0.00,,,0.00,meteohub,2013-01-30 21:36:00,
2013-01-30 16:41:00,69.3,63.5,29.81,SSW,213,8.0,16.0,82,0.00,,,0.00,meteohub,2013-01-30 21:41:00,
2013-01-30 16:46:00,69.1,63.7,29.80,SW,224,15.0,16.0,83,0.00,,,0.00,meteohub,2013-01-30 21:46:00,
2013-01-30 16:51:00,68.7,63.3,29.80,WSW,253,4.0,16.0,83,0.00,,,0.00,meteohub,2013-01-30 21:51:00,
2013-01-30 16:56:00,68.4,63.0,29.80,WSW,246,6.0,16.0,83,0.00,,,0.00,meteohub,2013-01-30 21:56:00,
2013-01-30 17:01:00,68.0,63.0,29.80,SW,215,2.0,15.0,84,0.00,,,0.00,meteohub,2013-01-30 22:01:00,
2013-01-30 17:06:00,67.8,62.8,29.80,WSW,244,8.0,15.0,84,0.00,,,0.00,meteohub,2013-01-30 22:06:00,
2013-01-30 17:11:00,67.6,63.0,29.80,SW,224,7.0,19.0,85,0.00,,,0.00,meteohub,2013-01-30 22:11:00,
2013-01-30 17:16:00,67.5,62.8,29.80,WSW,238,7.0,19.0,85,0.00,,,0.00,meteohub,2013-01-30 22:16:00,
2013-01-30 17:21:00,67.3,63.0,29.80,SW,217,6.0,19.0,86,0.00,,,0.00,meteohub,2013-01-30 22:21:00,
2013-01-30 17:26:00,67.1,63.1,29.79,South,187,12.0,19.0,87,0.00,,,0.00,meteohub,2013-01-30 22:26:00,
2013-01-30 17:31:00,67.1,63.1,29.79,SSW,197,3.0,18.0,87,0.00,,,0.00,meteohub,2013-01-30 22:31:00,
2013-01-30 17:36:00,66.9,63.0,29.79,SW,228,8.0,18.0,87,0.00,,,0.00,meteohub,2013-01-30 22:36:00,
2013-01-30 17:41:00,66.7,63.1,29.79,SSW,212,12.0,17.0,88,0.00,,,0.00,meteohub,2013-01-30 22:41:00,
2013-01-30 17:46:00,66.6,63.0,29.79,SSW,213,7.0,17.0,88,0.00,,,0.00,meteohub,2013-01-30 22:46:00,
2013-01-30 17:51:00,66.4,62.8,29.78,SW,229,4.0,17.0,88,0.00,,,0.00,meteohub,2013-01-30 22:51:00,
2013-01-30 17:56:00,66.4,62.8,29.78,WSW,239,9.0,17.0,88,0.00,,,0.00,meteohub,2013-01-30 22:56:00,
2013-01-30 18:01:00,66.0,62.6,29.78,WSW,240,1.0,23.0,89,0.00,,,0.00,meteohub,2013-01-30 23:01:00,
2013-01-30 18:06:00,65.8,62.4,29.78,West,272,4.0,23.0,89,0.00,,,0.00,meteohub,2013-01-30 23:06:00,
2013-01-30 18:11:00,65.8,62.4,29.78,WSW,252,4.0,23.0,89,0.00,,,0.00,meteohub,2013-01-30 23:11:00,
2013-01-30 18:16:00,66.2,63.1,29.78,WSW,248,3.0,20.0,90,0.00,,,0.00,meteohub,2013-01-30 23:16:00,
2013-01-30 18:21:00,66.4,63.3,29.77,South,177,10.0,20.0,90,0.00,,,0.00,meteohub,2013-01-30 23:21:00,
2013-01-30 18:26:00,66.7,63.3,29.77,SSW,202,12.0,20.0,89,0.00,,,0.00,meteohub,2013-01-30 23:26:00,
2013-01-30 18:31:00,66.7,63.7,29.77,SSW,211,8.0,20.0,90,0.00,,,0.00,meteohub,2013-01-30 23:31:00,
2013-01-30 18:36:00,66.7,63.3,29.77,SW,232,3.0,19.0,89,0.00,,,0.00,meteohub,2013-01-30 23:36:00,
2013-01-30 18:41:00,66.6,63.1,29.76,WSW,245,10.0,19.0,89,0.00,,,0.00,meteohub,2013-01-30 23:41:00,
2013-01-30 18:46:00,66.4,63.3,29.76,ESE,121,8.0,19.0,90,0.00,,,0.00,meteohub,2013-01-30 23:46:00,
2013-01-30 18:51:00,66.0,63.0,29.76,SSW,204,12.0,19.0,90,0.00,,,0.00,meteohub,2013-01-30 23:51:00,
2013-01-30 18:56:00,66.0,63.0,29.75,WSW,237,4.0,16.0,90,0.00,,,0.00,meteohub,2013-01-30 23:56:00,
2013-01-30 19:01:00,65.8,62.8,29.75,SSW,200,17.0,17.0,90,0.00,,,0.00,meteohub,2013-01-31 00:01:00,
2013-01-30 19:06:00,65.8,63.1,29.75,SSW,198,10.0,16.0,91,0.00,,,0.00,meteohub,2013-01-31 00:06:00,
2013-01-30 19:11:00,65.7,63.0,29.75,SSW,194,7.0,18.0,91,0.00,,,0.00,meteohub,2013-01-31 00:11:00,
2013-01-30 19:16:00,65.5,62.8,29.74,South,174,6.0,18.0,91,0.00,,,0.00,meteohub,2013-01-31 00:16:00,
2013-01-30 19:21:00,65.1,62.4,29.74,SSW,199,8.0,18.0,91,0.00,,,0.00,meteohub,2013-01-31 00:21:00,
2013-01-30 19:26:00,64.9,62.2,29.74,ESE,117,1.0,18.0,91,0.00,,,0.00,meteohub,2013-01-31 00:26:00,
2013-01-30 19:31:00,64.9,62.6,29.74,SW,236,10.0,18.0,92,0.00,,,0.00,meteohub,2013-01-31 00:31:00,
2013-01-30 19:36:00,64.9,62.2,29.73,West,269,8.0,18.0,91,0.00,,,0.00,meteohub,2013-01-31 00:36:00,
2013-01-30 19:41:00,64.9,62.2,29.73,SSW,197,2.0,19.0,91,0.00,,,0.00,meteohub,2013-01-31 00:41:00,
2013-01-30 19:46:00,64.9,62.2,29.73,WSW,238,4.0,19.0,91,0.00,,,0.00,meteohub,2013-01-31 00:46:00,
2013-01-30 19:51:00,64.9,62.2,29.73,South,182,9.0,19.0,91,0.00,,,0.00,meteohub,2013-01-31 00:51:00,
2013-01-30 19:56:00,65.5,62.8,29.73,SW,215,7.0,19.0,91,0.00,,,0.00,meteohub,2013-01-31 00:56:00,
2013-01-30 20:01:00,65.7,63.0,29.73,SSW,212,4.0,19.0,91,0.00,,,0.00,meteohub,2013-01-31 01:01:00,
2013-01-30 20:06:00,65.8,62.8,29.73,SW,228,5.0,19.0,90,0.00,,,0.00,meteohub,2013-01-31 01:06:00,
2013-01-30 20:11:00,66.0,63.0,29.73,SSW,206,15.0,19.0,90,0.00,,,0.00,meteohub,2013-01-31 01:11:00,
2013-01-30 20:16:00,66.4,63.3,29.72,SSW,205,8.0,19.0,90,0.00,,,0.00,meteohub,2013-01-31 01:16:00,
2013-01-30 20:21:00,66.4,63.3,29.72,West,262,14.0,22.0,90,0.00,,,0.00,meteohub,2013-01-31 01:21:00,
2013-01-30 20:26:00,66.4,63.0,29.72,SW,222,4.0,22.0,89,0.00,,,0.00,meteohub,2013-01-31 01:26:00,
2013-01-30 20:31:00,66.4,63.0,29.72,WSW,257,10.0,22.0,89,0.00,,,0.00,meteohub,2013-01-31 01:31:00,
2013-01-30 20:36:00,66.6,63.1,29.72,SW,215,6.0,22.0,89,0.00,,,0.00,meteohub,2013-01-31 01:36:00,
2013-01-30 20:41:00,66.9,63.5,29.71,SW,228,10.0,19.0,89,0.00,,,0.00,meteohub,2013-01-31 01:41:00,
2013-01-30 20:46:00,67.3,63.7,29.71,SSW,194,5.0,19.0,88,0.00,,,0.00,meteohub,2013-01-31 01:46:00,
2013-01-30 20:52:00,67.3,63.7,29.71,WSW,241,11.0,22.0,88,0.00,,,0.00,meteohub,2013-01-31 01:52:00,
2013-01-30 20:56:00,67.5,63.9,29.71,SSW,209,4.0,22.0,88,0.00,,,0.00,meteohub,2013-01-31 01:56:00,
2013-01-30 21:01:00,67.8,64.2,29.70,SSE,168,9.0,22.0,88,0.00,,,0.00,meteohub,2013-01-31 02:01:00,
2013-01-30 21:07:00,68.2,64.4,29.70,South,169,19.0,22.0,88,0.00,,,0.00,meteohub,2013-01-31 02:07:00,
2013-01-30 21:12:00,68.7,64.8,29.70,SW,236,11.0,24.0,87,0.00,,,0.00,meteohub,2013-01-31 02:12:00,
2013-01-30 21:17:00,68.7,64.8,29.70,SSW,199,11.0,24.0,87,0.00,,,0.00,meteohub,2013-01-31 02:17:00,
2013-01-30 21:22:00,69.1,65.1,29.70,SW,223,8.0,24.0,87,0.00,,,0.00,meteohub,2013-01-31 02:22:00,
2013-01-30 21:27:00,69.1,64.8,29.70,SSW,203,13.0,24.0,86,0.00,,,0.00,meteohub,2013-01-31 02:27:00,
2013-01-30 21:32:00,68.9,64.6,29.70,SSE,161,17.0,24.0,86,0.00,,,0.00,meteohub,2013-01-31 02:32:00,
2013-01-30 21:37:00,69.1,64.8,29.70,SW,221,11.0,24.0,86,0.00,,,0.00,meteohub,2013-01-31 02:37:00,
2013-01-30 21:42:00,69.3,64.6,29.70,WSW,248,8.0,24.0,85,0.00,,,0.00,meteohub,2013-01-31 02:42:00,
2013-01-30 21:47:00,69.4,64.4,29.69,West,273,9.0,24.0,84,0.00,,,0.00,meteohub,2013-01-31 02:47:00,
2013-01-30 21:52:00,69.3,64.2,29.69,WSW,257,5.0,23.0,84,0.00,,,0.00,meteohub,2013-01-31 02:52:00,
2013-01-30 21:57:00,69.4,64.8,29.69,WSW,244,8.0,23.0,85,0.00,,,0.00,meteohub,2013-01-31 02:57:00,
2013-01-30 22:02:00,69.6,64.6,29.68,WSW,243,13.0,23.0,84,0.00,,,0.00,meteohub,2013-01-31 03:02:00,
2013-01-30 22:07:00,69.6,64.6,29.68,SSE,167,5.0,23.0,84,0.00,,,0.00,meteohub,2013-01-31 03:07:00,
2013-01-30 22:12:00,69.6,64.6,29.68,South,190,18.0,23.0,84,0.00,,,0.00,meteohub,2013-01-31 03:12:00,
2013-01-30 22:17:00,69.6,64.6,29.66,WNW,290,3.0,23.0,84,0.00,,,0.00,meteohub,2013-01-31 03:17:00,
2013-01-30 22:22:00,69.1,64.4,29.65,West,263,8.0,23.0,85,0.00,,,0.00,meteohub,2013-01-31 03:22:00,
2013-01-30 22:27:00,68.5,63.9,29.65,SE,146,13.0,23.0,85,0.00,,,0.00,meteohub,2013-01-31 03:27:00,
2013-01-30 22:32:00,67.8,63.5,29.66,NNW,333,9.0,21.0,86,0.00,,,0.00,meteohub,2013-01-31 03:32:00,
2013-01-30 22:37:00,67.5,63.5,29.66,SSW,209,5.0,21.0,87,0.00,,,0.00,meteohub,2013-01-31 03:37:00,
2013-01-30 22:42:00,67.3,63.3,29.66,South,181,6.0,22.0,87,0.00,,,0.00,meteohub,2013-01-31 03:42:00,
2013-01-30 22:47:00,67.3,63.7,29.65,South,184,1.0,22.0,88,0.00,,,0.00,meteohub,2013-01-31 03:47:00,
2013-01-30 22:52:00,66.9,63.0,29.65,SW,218,2.0,22.0,87,0.00,,,0.00,meteohub,2013-01-31 03:52:00,
2013-01-30 22:57:00,66.7,63.1,29.64,SSW,204,5.0,28.0,88,0.00,,,0.00,meteohub,2013-01-31 03:57:00,
2013-01-30 23:02:00,66.7,63.3,29.64,West,259,8.0,28.0,89,0.00,,,0.00,meteohub,2013-01-31 04:02:00,
2013-01-30 23:07:00,66.7,63.3,29.64,SSW,207,3.0,28.0,89,0.00,,,0.00,meteohub,2013-01-31 04:07:00,
2013-01-30 23:12:00,66.6,63.1,29.63,SW,222,16.0,24.0,89,0.00,,,0.00,meteohub,2013-01-31 04:12:00,
2013-01-30 23:17:00,66.6,63.1,29.63,West,263,7.0,24.0,89,0.00,,,0.00,meteohub,2013-01-31 04:17:00,
2013-01-30 23:22:00,66.7,63.3,29.62,SW,235,9.0,24.0,89,0.00,,,0.00,meteohub,2013-01-31 04:22:00,
2013-01-30 23:27:00,66.9,63.5,29.62,SSW,210,9.0,24.0,89,0.00,,,0.00,meteohub,2013-01-31 04:27:00,
2013-01-30 23:32:00,67.1,63.7,29.62,SSW,199,7.0,26.0,89,0.00,,,0.00,meteohub,2013-01-31 04:32:00,
2013-01-30 23:37:00,66.7,63.3,29.61,SE,141,12.0,26.0,89,0.00,,,0.00,meteohub,2013-01-31 04:37:00,
2013-01-30 23:42:00,66.7,63.3,29.61,SSW,194,15.0,26.0,89,0.00,,,0.00,meteohub,2013-01-31 04:42:00,
2013-01-30 23:47:00,66.6,63.1,29.61,WSW,242,7.0,26.0,89,0.00,,,0.00,meteohub,2013-01-31 04:47:00,
2013-01-30 23:52:00,66.6,63.5,29.61,SW,215,11.0,26.0,90,0.00,,,0.00,meteohub,2013-01-31 04:52:00,
2013-01-30 23:57:00,66.7,63.7,29.60,West,279,7.0,24.0,90,0.00,,,0.00,meteohub,2013-01-31 04:57:00,